Notices

What's New in latest Release from April 7th, 2021:

- Updated Glossary, including Speed of Maximum Gust, and Total Hourly Precipitation

- Updated national and regional climate services offices contacts and prices information

- Addition of station inventory lists for 1981-2010, 1971-2000, and 1961-1990 Normals.

If you haven't already, please take our survey and provide feedback about our website: https://eccc.sondage-survey.ca/f/LanguageSelection.aspx?s=442ca660-fcf1-47c0-95a9-59707d6fd709

Hourly Data Report for January 20, 2021

STE-ANNE-DE-BELLEVUE 1
QUEBEC
Current Station Operator: ECCC - MSC

45°25'38.000" N
73°55'45.000" W
39.00 m
702FHL8
71377
WVQ

Download Data

Hourly Data (January 2021)
Hourly Data Report for January 20, 2021
TIME
LST
Temp Definition
°C
Dew Point Definition
°C
Rel Hum Definition
%
Precip. Amount Definition
mm

Wind Dir Definition
10's deg

Wind Spd Definition
km/h
Visibility Definition
km
Stn Press Definition
kPa
Hmdx Definition


Wind Chill Definition


Weather Definition


00:00 -9.7 -11.1 89 0.0 34 4   100.79   -12 LegendNANA
01:00 -10.7 -12.0 90 0.0 33 2   100.73   -12 LegendNANA
02:00 -10.7 -11.7 92 0.0 32 5   100.72   -14 LegendNANA
03:00 -11.0 -12.0 92 0.0 33 5   100.71   -14 LegendNANA
04:00 -10.7 -11.6 93 0.0   0   100.65     LegendNANA
05:00 -9.7 -10.7 92 0.0 10 2   100.63   -11 LegendNANA
06:00 -9.8 -11.2 90 0.0 23 3   100.67   -12 LegendNANA
07:00 -9.3 -10.7 90 0.2 27 6   100.70   -13 LegendNANA
08:00 -10.3 -11.6 90 0.0 28 6   100.74   -14 LegendNANA
09:00 -10.0 -11.7 87 0.0 29 12   100.81   -16 LegendNANA
10:00 -9.8 -12.1 83 0.0 30 9   100.85   -15 LegendNANA
11:00 -8.5 -12.2 75 0.0 27 15   100.86   -15 LegendNANA
12:00 -7.8 -12.7 68 0.0 26 14   100.84   -14 LegendNANA
13:00 -7.9 -12.4 70 0.0 25 18   100.87   -15 LegendNANA
14:00 -7.8 -12.6 69 0.0 25 20   100.94   -15 LegendNANA
15:00 -7.9 -13.0 66 0.0 26 16   101.02   -14 LegendNANA
16:00 -8.8 -13.6 68 0.0 26 21   101.08   -17 LegendNANA
17:00 -10.2 -14.6 70 0.0 26 15   101.13   -17 LegendNANA
18:00 -11.0 -15.5 69 0.0 26 16   101.23   -18 LegendNANA
19:00 -12.5 -15.7 77 0.0 25 16   101.25   -20 LegendNANA
20:00 -13.6 -16.8 77 0.0 24 13   101.20   -21 LegendNANA
21:00 -14.8 -17.5 80 0.0 26 8   101.17   -20 LegendNANA
22:00 -15.7 -18.0 83 0.0 26 9   101.13   -22 LegendNANA
23:00 -17.5 -19.2 87 0.0 23 3   101.05   -20 LegendNANA

Notes on Data Quality.

Legend

  • E = Estimated
  • M = Missing
  • NA = Not Available*
  • [empty] = Indicates an unobserved value
Date modified: